sat.trackr.live / text

‹ back to catalog

STARLINK-5877

NORAD 56354 · 2023-058AP

PAYLOAD ACTIVE UNKNOWN

§ Identity

Operator
Country
US
Launch date
2023-04-27
Launch site
AFWTR
Launch vehicle
Mass (kg)
RCS (m²)

Purposes: comms

External: N2YO · Heavens-Above · Gunter

§ Orbital elements

Epoch: 2026-09-20T12:50:49.087104Z

Period
93.91 min
Inclination
97.2838°
Eccentricity
0.0001692
Mean motion
15.33447433 rev/d
Perigee alt
464.4 km
Apogee alt
466.7 km
Semi-major
6,843.7 km
B*
4.2239e-5
RAAN
260.3356°
Arg perigee
92.7067°
Mean anomaly
267.4370°
Rev number
18,764

§ Raw data

STARLINK-58771 56354U 23058AP  26263.53529036  .00001289  00000+0  42239-4 0  99962 56354  97.2838 260.3356 0001692  92.7067 267.4370 15.33447433187648

JSON: /api/v1/satellites/56354 · /tle

For live sub-satellite position, see the globe view (requires WebGL).

§ Visibility from observer

Set your observer location to see the next 7 days of passes ≥ 10°. The values pass through the URL so the page stays shareable.

No JS? Fill the form by hand. The geolocation button needs JavaScript.